KC8P Weather Reports


time (UTC)temp
C
wind
direction
speed
KPH
gust
KPH
rain 1hr
cm
rain 24hr
cm
rain mn
cm
humidity
%
barometer
mb
20260503180034 16 254 3.2 25.7 0.00 0.00 0.00 42 1010.4
20260503175926 16 228 11.3 25.7 0.00 0.00 0.00 42 1010.8
20260503175821 16 192 6.4 25.7 0.00 0.00 0.00 41 1010.8
20260503175716 16 236 6.4 25.7 0.00 0.00 0.00 44 1010.8
20260503175610 16 266 12.9 25.7 0.00 0.00 0.00 42 1010.8
20260503175522 15 176 8.0 25.7 0.00 0.00 0.00 43 1010.8
20260503175504 15 257 8.0 25.7 0.00 0.00 0.00 43 1010.8
20260503175405 15 347 8.0 25.7 0.00 0.00 0.00 43 1010.8
20260503175259 15 269 20.9 25.7 0.00 0.00 0.00 42 1010.8
20260503175154 15 235 14.5 24.1 0.00 0.00 0.00 43 1010.8
20260503175048 15 250 14.5 30.6 0.00 0.00 0.00 44 1010.8
20260503175021 15 226 17.7 30.6 0.00 0.00 0.00 43 1010.8
20260503174943 15 244 11.3 30.6 0.00 0.00 0.00 43 1010.8
20260503174837 15 204 6.4 30.6 0.00 0.00 0.00 45 1010.8
20260503174731 15 207 8.0 30.6 0.00 0.00 0.00 43 1010.8
20260503174625 15 268 14.5 30.6 0.00 0.00 0.00 43 1010.8
20260503174520 15 235 12.9 30.6 0.00 0.00 0.00 43 1010.8
20260503174414 15 247 6.4 30.6 0.00 0.00 0.00 43 1010.8
20260503174310 15 271 9.7 33.8 0.00 0.00 0.00 43 1010.8
20260503174206 15 346 12.9 33.8 0.00 0.00 0.00 44 1010.8
20260503174059 15 216 8.0 33.8 0.00 0.00 0.00 43 1010.8
20260503174010 15 207 12.9 33.8 0.00 0.00 0.00 44 1010.8
20260503173953 15 188 12.9 33.8 0.00 0.00 0.00 43 1010.8
20260503173848 15 217 16.1 33.8 0.00 0.00 0.00 43 1010.8
20260503173743 15 257 9.7 33.8 0.00 0.00 0.00 44 1010.8
20260503173637 15 220 4.8 33.8 0.00 0.00 0.00 45 1010.8
20260503173530 15 288 6.4 33.8 0.00 0.00 0.00 43 1011.1
20260503173503 15 222 8.0 33.8 0.00 0.00 0.00 44 1011.1
20260503173425 15 234 17.7 33.8 0.00 0.00 0.00 43 1011.1
20260503173319 15 307 14.5 25.7 0.00 0.00 0.00 44 1011.1
20260503173215 15 278 14.5 25.7 0.00 0.00 0.00 43 1011.1
20260503173107 15 222 12.9 25.7 0.00 0.00 0.00 43 1011.1
20260503173002 15 192 17.7 24.1 0.00 0.00 0.00 43 1010.8
20260503172856 15 191 12.9 22.5 0.00 0.00 0.00 44 1011.1
20260503172751 15 269 17.7 22.5 0.00 0.00 0.00 43 1011.1
20260503172645 15 197 14.5 22.5 0.00 0.00 0.00 42 1011.4
20260503172539 15 182 1.6 22.5 0.00 0.00 0.00 44 1011.4
20260503172450 15 263 3.2 22.5 0.00 0.00 0.00 43 1011.4
20260503172433 15 215 0.0 22.5 0.00 0.00 0.00 43 1011.4
20260503172329 15 237 9.7 22.5 0.00 0.00 0.00 44 1011.4
20260503172222 15 212 12.9 22.5 0.00 0.00 0.00 43 1011.4
20260503172117 15 181 4.8 22.5 0.00 0.00 0.00 43 1011.4
20260503172011 15 231 17.7 22.5 0.00 0.00 0.00 43 1011.4
20260503171943 15 243 16.1 22.5 0.00 0.00 0.00 44 1011.4
20260503171905 15 238 9.7 22.5 0.00 0.00 0.00 43 1011.4
20260503171759 15 281 9.7 22.5 0.00 0.00 0.00 42 1011.4
20260503171653 15 257 4.8 22.5 0.00 0.00 0.00 43 1011.1
20260503171548 15 280 9.7 20.9 0.00 0.00 0.00 43 1011.4
20260503171442 15 181 6.4 20.9 0.00 0.00 0.00 44 1011.1
20260503171336 15 225 11.3 20.9 0.00 0.00 0.00 44 1011.4
20260503171231 15 193 6.4 25.7 0.00 0.00 0.00 43 1011.1
20260503171125 15 213 11.3 25.7 0.00 0.00 0.00 43 1011.4
20260503171020 15 217 12.9 25.7 0.00 0.00 0.00 43 1011.4
20260503170930 15 198 6.4 25.7 0.00 0.00 0.00 42 1011.4
20260503170914 15 179 8.0 25.7 0.00 0.00 0.00 43 1011.4
20260503170809 15 242 6.4 25.7 0.00 0.00 0.00 43 1011.1
20260503170703 15 267 9.7 25.7 0.00 0.00 0.00 43 1011.4
20260503170556 15 218 8.0 25.7 0.00 0.00 0.00 44 1011.8
20260503170450 15 200 6.4 25.7 0.00 0.00 0.00 43 1011.4
20260503170425 15 227 11.3 25.7 0.00 0.00 0.00 43 1011.4
20260503170345 15 193 14.5 25.7 0.00 0.00 0.00 42 1011.4
20260503170239 15 193 4.8 22.5 0.00 0.00 0.00 45 1011.4
20260503170145 15 241 12.9 22.5 0.00 0.00 0.00 43 1011.4
20260503160119 13 193 1.6 27.4 0.00 0.00 0.00 45 1012.1
20260503150952 14 224 14.5 24.1 0.00 0.00 0.00 43 1012.1
20260503150847 14 228 8.0 24.1 0.00 0.00 0.00 43 1012.4
20260503150741 14 328 6.4 24.1 0.00 0.00 0.00 43 1012.1
20260503150652 14 275 4.8 24.1 0.00 0.00 0.00 43 1012.1
20260503150636 14 193 8.0 24.1 0.00 0.00 0.00 44 1012.1
20260503150530 13 225 6.4 24.1 0.00 0.00 0.00 44 1012.1
20260503150425 13 221 17.7 24.1 0.00 0.00 0.00 44 1012.4
20260503150318 13 220 16.1 24.1 0.00 0.00 0.00 43 1012.1
20260503150212 14 254 16.1 24.1 0.00 0.00 0.00 43 1012.1
20260503150146 14 254 16.1 24.1 0.00 0.00 0.00 43 1012.1
20260503150111 13 157 14.5 24.1 0.00 0.00 0.00 43 1012.4
20260503140308 12 246 6.4 20.9 0.00 0.00 0.00 47 1012.4
20260503140259 12 253 3.2 20.9 0.00 0.00 0.00 47 1012.8
20260503140255 12 233 4.8 20.9 0.00 0.00 0.00 46 1012.4
20260503140247 12 273 12.9 20.9 0.00 0.00 0.00 46 1012.4
20260503131249 9 148 8.0 17.7 0.00 0.00 0.00 53 1012.8
20260503131215 9 92 1.6 22.5 0.00 0.00 0.00 54 1012.8
20260503131210 9 137 3.2 17.7 0.00 0.00 0.00 53 1012.8
20260503131201 9 266 0.0 17.7 0.00 0.00 0.00 56 1012.8
20260503130932 9 92 1.6 22.5 0.00 0.00 0.00 54 1012.8
20260503130827 8 211 4.8 22.5 0.00 0.00 0.00 54 1012.8
20260503130722 8 239 8.0 22.5 0.00 0.00 0.00 53 1012.8
20260503130616 8 277 6.4 22.5 0.00 0.00 0.00 54 1012.8
20260503130511 8 133 8.0 22.5 0.00 0.00 0.00 54 1012.8
20260503130434 8 288 4.8 22.5 0.00 0.00 0.00 53 1012.8
20260503130405 8 248 12.9 22.5 0.00 0.00 0.00 54 1012.4
20260503130300 8 133 1.6 22.5 0.00 0.00 0.00 56 1012.8
20260503130155 8 236 4.8 22.5 0.00 0.00 0.00 54 1012.8
20260503120155 6 279 6.4 17.7 0.00 0.00 0.00 58 1012.8
20260503110753 4 206 9.7 12.9 0.00 0.00 0.00 60 1013.1
20260503110744 4 191 8.0 12.9 0.00 0.00 0.00 60 1013.1
20260503110522 4 200 9.7 12.9 0.00 0.00 0.00 61 1013.1
20260503110513 4 208 4.8 12.9 0.00 0.00 0.00 61 1013.1
20260503110452 4 215 4.8 9.7 0.00 0.00 0.00 61 1013.1
20260503110230 4 214 6.4 9.7 0.00 0.00 0.00 61 1013.1
20260503110222 3 191 4.8 9.7 0.00 0.00 0.00 62 1013.1
20260503100253 3 216 4.8 9.7 0.00 0.00 0.00 65 1013.5
20260503100148 3 235 3.2 9.7 0.00 0.00 0.00 64 1013.5
20260503100121 3 206 4.8 9.7 0.00 0.00 0.00 64 1013.9
20260503090501 2 194 1.6 3.2 0.00 0.00 0.00 67 1014.2
20260503090356 2 210 3.2 3.2 0.00 0.00 0.00 66 1014.2
20260503090250 2 210 0.0 3.2 0.00 0.00 0.00 67 1013.9
20260503090145 2 202 0.0 3.2 0.00 0.00 0.00 67 1014.2
20260503081532 3 309 1.6 11.3 0.00 0.00 0.00 66 1014.2
20260503081426 3 254 1.6 11.3 0.00 0.00 0.00 66 1013.9
20260503081320 3 239 4.8 11.3 0.00 0.00 0.00 65 1014.2
20260503081216 3 170 0.0 11.3 0.00 0.00 0.00 65 1014.2
20260503081110 2 251 8.0 11.3 0.00 0.00 0.00 65 1014.2
20260503081004 2 245 1.6 11.3 0.00 0.00 0.00 66 1014.2
20260503080916 2 224 1.6 6.4 0.00 0.00 0.00 66 1014.2
20260503080858 2 160 0.0 6.4 0.00 0.00 0.00 67 1014.2
20260503080752 2 179 0.0 6.4 0.00 0.00 0.00 67 1014.2
20260503080648 2 230 3.2 6.4 0.00 0.00 0.00 67 1014.2
20260503080542 2 222 0.0 6.4 0.00 0.00 0.00 68 1014.2
20260503080436 2 237 0.0 6.4 0.00 0.00 0.00 67 1014.2
20260503080410 2 242 1.6 6.4 0.00 0.00 0.00 67 1014.2
20260503080332 2 314 3.2 6.4 0.00 0.00 0.00 67 1014.2
20260503080226 2 233 3.2 6.4 0.00 0.00 0.00 67 1014.2
20260503080120 2 192 3.2 4.8 0.00 0.00 0.00 67 1013.9
20260503072923 2 232 0.0 6.4 0.00 0.00 0.00 68 1014.2
20260503072817 2 247 0.0 6.4 0.00 0.00 0.00 68 1014.2
20260503072712 2 220 4.8 6.4 0.00 0.00 0.00 69 1014.2
20260503072607 2 155 0.0 4.8 0.00 0.00 0.00 69 1014.2
20260503072502 2 197 1.6 4.8 0.00 0.00 0.00 69 1014.6
20260503072356 2 102 0.0 4.8 0.00 0.00 0.00 69 1014.2
20260503072308 2 229 0.0 4.8 0.00 0.00 0.00 68 1014.2
20260503072250 2 228 0.0 4.8 0.00 0.00 0.00 68 1014.2
20260503072146 2 264 1.6 4.8 0.00 0.00 0.00 68 1014.2
20260503072040 2 203 1.6 3.2 0.00 0.00 0.00 69 1014.2
20260503071935 2 195 0.0 3.2 0.00 0.00 0.00 69 1014.2
20260503071829 2 306 1.6 4.8 0.00 0.00 0.00 69 1014.2
20260503071803 2 172 0.0 4.8 0.00 0.00 0.00 69 1014.2
20260503071724 2 140 1.6 4.8 0.00 0.00 0.00 69 1014.2
20260503071618 2 234 0.0 4.8 0.00 0.00 0.00 68 1014.6
20260503071532 2 275 0.0 4.8 0.00 0.00 0.00 69 1014.2
20260503071523 2 208 0.0 4.8 0.00 0.00 0.00 69 1014.2
20260503071513 2 255 0.0 4.8 0.00 0.00 0.00 69 1014.2
20260503071209 2 200 1.6 4.8 0.00 0.00 0.00 68 1014.2
20260503071051 2 214 0.0 4.8 0.00 0.00 0.00 68 1014.2
20260503070946 2 232 1.6 4.8 0.00 0.00 0.00 68 1014.2
20260503070840 2 296 4.8 4.8 0.00 0.00 0.00 68 1014.2
20260503070752 2 175 0.0 4.8 0.00 0.00 0.00 69 1014.2
20260503070735 2 216 0.0 4.8 0.00 0.00 0.00 69 1014.2
20260503070629 2 223 1.6 6.4 0.00 0.00 0.00 69 1014.2
20260503070524 2 159 1.6 6.4 0.00 0.00 0.00 69 1014.2
20260503070418 2 135 1.6 6.4 0.00 0.00 0.00 69 1014.2
20260503070313 2 198 1.6 6.4 0.00 0.00 0.00 69 1014.2
20260503070246 2 223 1.6 6.4 0.00 0.00 0.00 69 1014.2
20260503070208 2 259 1.6 6.4 0.00 0.00 0.00 69 1014.2
20260503060312 3 217 1.6 11.3 0.00 0.00 0.00 68 1014.6
20260503060206 3 183 1.6 11.3 0.00 0.00 0.00 67 1014.9
20260503060140 3 218 3.2 11.3 0.00 0.00 0.00 67 1014.9
20260503060109 3 183 3.2 11.3 0.00 0.00 0.00 67 1014.9
20260503055112 3 207 3.2 9.7 0.00 0.00 0.00 68 1014.9
20260503055005 3 113 1.6 9.7 0.00 0.00 0.00 67 1014.6
20260503054900 3 269 3.2 9.7 0.00 0.00 0.00 67 1014.9
20260503054754 3 233 3.2 9.7 0.00 0.00 0.00 67 1014.9
20260503054648 3 210 1.6 9.7 0.00 0.00 0.00 67 1014.9
20260503054622 3 214 4.8 9.7 0.00 0.00 0.00 67 1014.9
20260503054543 3 220 3.2 9.7 0.00 0.00 0.00 67 1014.9
20260503054439 3 228 1.6 6.4 0.00 0.00 0.00 67 1014.9
20260503054335 3 228 3.2 6.4 0.00 0.00 0.00 67 1014.9
20260503054226 3 221 3.2 6.4 0.00 0.00 0.00 67 1014.9
20260503054121 3 197 3.2 6.4 0.00 0.00 0.00 67 1014.9
20260503054016 3 169 4.8 6.4 0.00 0.00 0.00 67 1014.9
20260503053910 3 232 4.8 6.4 0.00 0.00 0.00 67 1014.9
20260503053830 3 219 1.6 4.8 0.00 0.00 0.00 68 1014.9
20260503053703 3 222 3.2 6.4 0.00 0.00 0.00 69 1014.9
20260503053612 3 218 1.6 6.4 0.00 0.00 0.00 68 1014.9
20260503053555 3 220 3.2 6.4 0.00 0.00 0.00 68 1014.9
20260503053448 3 217 1.6 6.4 0.00 0.00 0.00 68 1014.9
20260503053343 3 218 1.6 6.4 0.00 0.00 0.00 68 1014.9
20260503053303 3 211 3.2 6.4 0.00 0.00 0.00 68 1014.9
20260503053133 3 236 1.6 6.4 0.00 0.00 0.00 68 1014.9
20260503053106 3 196 3.2 6.4 0.00 0.00 0.00 68 1014.9
20260503053025 3 221 1.6 6.4 0.00 0.00 0.00 68 1014.9
20260503052919 3 205 1.6 6.4 0.00 0.00 0.00 68 1014.9
20260503052815 3 226 3.2 6.4 0.00 0.00 0.00 68 1014.9
20260503052709 3 213 3.2 4.8 0.00 0.00 0.00 68 1014.9
20260503052604 3 209 3.2 4.8 0.00 0.00 0.00 68 1014.9
20260503052456 3 224 1.6 4.8 0.00 0.00 0.00 68 1014.9
20260503052351 3 197 3.2 6.4 0.00 0.00 0.00 68 1014.9
20260503052245 3 191 3.2 6.4 0.00 0.00 0.00 67 1015.3
20260503052141 3 223 3.2 6.4 0.00 0.00 0.00 68 1014.9
20260503052052 3 213 1.6 6.4 0.00 0.00 0.00 69 1015.3
20260503052034 3 230 3.2 6.4 0.00 0.00 0.00 69 1014.9
20260503051929 3 209 0.0 6.4 0.00 0.00 0.00 68 1014.9
20260503051824 3 214 3.2 6.4 0.00 0.00 0.00 68 1014.9
20260503051718 3 202 1.6 6.4 0.00 0.00 0.00 68 1014.9
20260503051613 3 198 1.6 9.7 0.00 0.00 0.00 68 1014.9
20260503051546 3 216 1.6 9.7 0.00 0.00 0.00 67 1014.9
20260503051507 3 218 4.8 9.7 0.00 0.00 0.00 68 1015.3
20260503051402 3 224 4.8 9.7 0.00 0.00 0.00 68 1015.3
20260503051257 3 222 1.6 9.7 0.00 0.00 0.00 68 1014.9
20260503051151 3 212 0.0 9.7 0.00 0.00 0.00 69 1014.9
20260503051046 3 209 3.2 9.7 0.00 0.00 0.00 68 1015.3
20260503050940 3 220 0.0 9.7 0.00 0.00 0.00 68 1014.9
20260503050834 3 200 1.6 9.7 0.00 0.00 0.00 68 1014.9
20260503050729 3 196 4.8 9.7 0.00 0.00 0.00 67 1015.3
20260503050624 3 220 3.2 4.8 0.00 0.00 0.00 69 1014.9
20260503050537 3 223 1.6 4.8 0.00 0.00 0.00 68 1014.9
20260503050517 3 209 3.2 4.8 0.00 0.00 0.00 68 1015.3
20260503050412 3 222 1.6 4.8 0.00 0.00 0.00 68 1015.3
20260503050306 3 233 3.2 4.8 0.00 0.00 0.00 68 1015.3
20260503050201 3 173 0.0 4.8 0.00 0.00 0.00 68 1015.3
20260503050108 3 197 0.0 4.8 0.00 0.00 0.00 68 1014.9
20260503050029 3 221 0.0 4.8 0.00 0.00 0.00 68 1015.3
20260503045949 3 219 3.2 4.8 0.00 0.00 0.00 68 1015.3
20260503045845 3 218 3.2 4.8 0.00 0.00 0.00 68 1014.9
20260503045738 3 196 3.2 4.8 0.00 0.00 0.00 67 1015.3
20260503045634 3 210 1.6 4.8 0.00 0.00 0.00 67 1015.3
20260503045527 3 226 4.8 4.8 0.00 0.00 0.00 68 1015.3
20260503045422 3 224 1.6 4.8 0.00 0.00 0.00 67 1015.3
20260503045317 3 215 3.2 4.8 0.00 0.00 0.00 68 1015.3
20260503045211 3 208 3.2 4.8 0.00 0.00 0.00 68 1015.3
20260503045105 3 207 1.6 4.8 0.00 0.00 0.00 69 1015.3
20260503045016 3 215 0.0 4.8 0.00 0.00 0.00 69 1015.3
20260503045000 3 227 1.6 4.8 0.00 0.00 0.00 68 1015.3
20260503044854 3 216 1.6 4.8 0.00 0.00 0.00 68 1015.3
20260503044748 3 210 0.0 4.8 0.00 0.00 0.00 68 1015.3
20260503044644 3 211 3.2 4.8 0.00 0.00 0.00 67 1015.3
20260503044538 3 214 3.2 4.8 0.00 0.00 0.00 68 1015.3
20260503044511 3 220 3.2 4.8 0.00 0.00 0.00 68 1015.3
20260503044432 3 214 0.0 3.2 0.00 0.00 0.00 67 1015.3
20260503044326 3 187 0.0 3.2 0.00 0.00 0.00 67 1015.3
20260503044222 3 193 0.0 3.2 0.00 0.00 0.00 68 1015.3
20260503044117 3 197 0.0 3.2 0.00 0.00 0.00 68 1015.3
20260503044013 3 212 0.0 3.2 0.00 0.00 0.00 68 1015.3
20260503043905 3 218 0.0 3.2 0.00 0.00 0.00 68 1015.3
20260503043800 3 202 0.0 4.8 0.00 0.00 0.00 67 1015.3
20260503043654 3 197 0.0 4.8 0.00 0.00 0.00 67 1015.3
20260503043549 3 202 0.0 4.8 0.00 0.00 0.00 67 1015.3
20260503043500 3 204 3.2 4.8 0.00 0.00 0.00 67 1015.3
20260503043443 3 211 3.2 4.8 0.00 0.00 0.00 67 1015.3
20260503043338 3 208 0.0 4.8 0.00 0.00 0.00 67 1015.3
20260503043233 3 208 3.2 4.8 0.00 0.00 0.00 67 1015.3
20260503043128 3 209 1.6 4.8 0.00 0.00 0.00 67 1015.3
20260503043022 3 201 0.0 4.8 0.00 0.00 0.00 67 1015.3
20260503042956 3 200 0.0 4.8 0.00 0.00 0.00 67 1015.3
20260503042917 3 199 0.0 4.8 0.00 0.00 0.00 67 1015.3
20260503042812 3 184 4.8 4.8 0.00 0.00 0.00 67 1015.3
20260503042705 3 215 1.6 3.2 0.00 0.00 0.00 66 1015.3
20260503042559 3 200 3.2 3.2 0.00 0.00 0.00 67 1015.3
20260503042455 3 216 1.6 3.2 0.00 0.00 0.00 67 1015.3
20260503042349 3 194 3.2 3.2 0.00 0.00 0.00 66 1015.3
20260503042243 3 204 1.6 4.8 0.00 0.00 0.00 66 1014.9
20260503042138 3 203 3.2 4.8 0.00 0.00 0.00 66 1015.3
20260503042033 3 198 1.6 4.8 0.00 0.00 0.00 66 1015.3
20260503041945 3 208 1.6 4.8 0.00 0.00 0.00 66 1015.3
20260503041927 3 211 1.6 4.8 0.00 0.00 0.00 66 1015.3
20260503041823 3 206 1.6 4.8 0.00 0.00 0.00 66 1015.3
20260503041717 3 202 1.6 4.8 0.00 0.00 0.00 66 1015.3
20260503041611 3 212 1.6 4.8 0.00 0.00 0.00 66 1015.3
20260503041505 3 210 1.6 4.8 0.00 0.00 0.00 66 1015.3
20260503041439 3 208 3.2 4.8 0.00 0.00 0.00 66 1015.3
20260503041359 3 205 1.6 4.8 0.00 0.00 0.00 65 1015.3
20260503041254 3 203 1.6 4.8 0.00 0.00 0.00 66 1015.3
20260503041149 3 195 3.2 4.8 0.00 0.00 0.00 65 1015.3
20260503041043 3 218 1.6 4.8 0.00 0.00 0.00 66 1015.3
20260503040937 3 205 1.6 4.8 0.00 0.00 0.00 66 1015.3
20260503040833 3 205 3.2 4.8 0.00 0.00 0.00 66 1015.3
20260503040727 3 211 3.2 4.8 0.00 0.00 0.00 65 1015.3
20260503040621 3 189 3.2 4.8 0.00 0.00 0.00 66 1015.3
20260503040516 3 204 3.2 4.8 0.00 0.00 0.00 66 1015.3
20260503040428 3 205 1.6 4.8 0.00 0.00 0.00 66 1015.3
20260503040410 3 208 1.6 4.8 0.00 0.00 0.00 66 1015.3
20260503040305 3 201 3.2 4.8 0.00 0.00 0.00 65 1015.3
20260503040200 3 204 3.2 4.8 0.00 0.00 0.00 66 1015.3
20260503040101 3 181 3.2 4.8 0.00 0.00 0.00 66 1015.3
20260503035948 3 198 3.2 4.8 0.00 0.00 0.00 66 1015.3
20260503035922 3 202 3.2 4.8 0.00 0.00 0.00 66 1015.3
20260503035843 3 216 3.2 4.8 0.00 0.00 0.00 65 1015.3
20260503035738 4 201 1.6 4.8 0.00 0.00 0.00 65 1015.3
20260503035632 4 208 1.6 4.8 0.00 0.00 0.00 65 1015.6
20260503035526 4 214 3.2 4.8 0.00 0.00 0.00 65 1015.3
20260503035421 3 203 1.6 4.8 0.00 0.00 0.00 65 1015.3
20260503035316 3 198 3.2 4.8 0.00 0.00 0.00 65 1015.6
20260503035211 4 205 3.2 4.8 0.00 0.00 0.00 65 1015.3
20260503035105 4 197 3.2 4.8 0.00 0.00 0.00 64 1015.3
20260503034958 4 200 3.2 4.8 0.00 0.00 0.00 64 1015.3
20260503034910 4 210 3.2 4.8 0.00 0.00 0.00 64 1015.3
20260503034853 3 198 3.2 4.8 0.00 0.00 0.00 64 1015.3
20260503034747 3 206 3.2 4.8 0.00 0.00 0.00 64 1015.3
20260503034642 3 204 0.0 4.8 0.00 0.00 0.00 65 1015.3
20260503034536 4 207 0.0 4.8 0.00 0.00 0.00 64 1015.3
20260503034431 4 212 1.6 4.8 0.00 0.00 0.00 65 1015.3
20260503034404 4 210 3.2 4.8 0.00 0.00 0.00 64 1015.3
20260503034325 4 207 3.2 4.8 0.00 0.00 0.00 64 1015.3
20260503034220 3 195 3.2 4.8 0.00 0.00 0.00 64 1015.3
20260503034115 3 191 3.2 3.2 0.00 0.00 0.00 65 1015.3
20260503034009 3 205 1.6 3.2 0.00 0.00 0.00 65 1015.3
20260503033904 3 215 0.0 0.0 0.00 0.00 0.00 65 1015.3
20260503033759 3 204 0.0 3.2 0.00 0.00 0.00 65 1015.3
20260503033653 3 208 0.0 3.2 0.00 0.00 0.00 64 1015.3
20260503033547 3 207 0.0 3.2 0.00 0.00 0.00 64 1015.3
20260503033442 3 211 0.0 3.2 0.00 0.00 0.00 65 1015.6
20260503033354 4 214 0.0 3.2 0.00 0.00 0.00 65 1015.6
20260503033336 4 211 0.0 3.2 0.00 0.00 0.00 64 1015.6
20260503033231 4 201 0.0 4.8 0.00 0.00 0.00 64 1015.3
20260503033125 3 206 0.0 4.8 0.00 0.00 0.00 64 1015.3
20260503033019 3 208 0.0 4.8 0.00 0.00 0.00 65 1015.6
20260503032927 3 201 0.0 4.8 0.00 0.00 0.00 64 1015.3
20260503032848 3 207 0.0 4.8 0.00 0.00 0.00 64 1015.3
20260503032809 3 193 3.2 4.8 0.00 0.00 0.00 64 1015.3
20260503032704 3 217 3.2 4.8 0.00 0.00 0.00 65 1015.3
20260503032558 3 213 3.2 4.8 0.00 0.00 0.00 64 1015.6
20260503032452 4 216 3.2 4.8 0.00 0.00 0.00 64 1015.6
20260503032348 4 208 3.2 4.8 0.00 0.00 0.00 64 1015.6
20260503032243 4 191 4.8 4.8 0.00 0.00 0.00 64 1015.6
20260503032138 4 215 3.2 4.8 0.00 0.00 0.00 64 1015.6
20260503032032 4 212 1.6 4.8 0.00 0.00 0.00 64 1015.3
20260503031926 4 220 1.6 4.8 0.00 0.00 0.00 64 1015.6
20260503031838 4 214 3.2 4.8 0.00 0.00 0.00 64 1015.6
20260503031821 4 215 1.6 4.8 0.00 0.00 0.00 64 1015.3
20260503031716 3 218 3.2 3.2 0.00 0.00 0.00 64 1015.3
20260503031610 3 211 3.2 3.2 0.00 0.00 0.00 64 1015.6
20260503031504 3 229 3.2 3.2 0.00 0.00 0.00 64 1015.6
20260503031400 4 215 1.6 3.2 0.00 0.00 0.00 64 1015.6
20260503031333 4 224 1.6 3.2 0.00 0.00 0.00 64 1015.6
20260503031255 4 215 1.6 3.2 0.00 0.00 0.00 64 1015.6
20260503031149 4 213 3.2 3.2 0.00 0.00 0.00 64 1015.6
20260503031043 4 215 1.6 3.2 0.00 0.00 0.00 64 1015.6
20260503030938 4 211 3.2 3.2 0.00 0.00 0.00 64 1015.3
20260503030832 4 202 1.6 3.2 0.00 0.00 0.00 64 1015.6
20260503030727 4 218 0.0 3.2 0.00 0.00 0.00 64 1015.6
20260503030621 4 217 3.2 3.2 0.00 0.00 0.00 64 1015.6
20260503030516 4 225 1.6 3.2 0.00 0.00 0.00 64 1015.6
20260503030411 4 204 0.0 1.6 0.00 0.00 0.00 64 1015.6
20260503030323 4 230 0.0 1.6 0.00 0.00 0.00 64 1015.3
20260503030306 4 224 0.0 1.6 0.00 0.00 0.00 64 1015.3
20260503030200 4 217 1.6 1.6 0.00 0.00 0.00 64 1015.3
20260503030107 4 217 0.0 3.2 0.00 0.00 0.00 63 1015.3
20260503025950 4 206 0.0 4.8 0.00 0.00 0.00 63 1015.3
20260503025844 4 191 0.0 4.8 0.00 0.00 0.00 63 1015.6
20260503025817 4 191 0.0 4.8 0.00 0.00 0.00 63 1015.3
20260503025739 4 206 0.0 4.8 0.00 0.00 0.00 63 1015.3
20260503025633 4 205 0.0 4.8 0.00 0.00 0.00 63 1015.6
20260503025527 4 213 0.0 4.8 0.00 0.00 0.00 63 1015.6
20260503025422 4 217 0.0 4.8 0.00 0.00 0.00 63 1015.6
20260503025316 4 215 1.6 4.8 0.00 0.00 0.00 63 1015.6
20260503025211 4 206 1.6 4.8 0.00 0.00 0.00 63 1015.6
20260503025106 4 206 0.0 4.8 0.00 0.00 0.00 63 1015.6
20260503025000 4 190 0.0 4.8 0.00 0.00 0.00 63 1015.6
20260503024855 4 209 0.0 4.8 0.00 0.00 0.00 62 1015.3
20260503024806 4 206 1.6 6.4 0.00 0.00 0.00 62 1015.3
20260503024749 4 202 1.6 6.4 0.00 0.00 0.00 62 1015.3
20260503024643 4 214 1.6 6.4 0.00 0.00 0.00 62 1015.6
20260503024538 4 209 1.6 6.4 0.00 0.00 0.00 62 1015.6
20260503024433 4 220 1.6 6.4 0.00 0.00 0.00 62 1015.9
20260503024327 4 211 1.6 6.4 0.00 0.00 0.00 62 1015.6
20260503024301 4 212 3.2 6.4 0.00 0.00 0.00 62 1015.6
20260503024223 4 207 1.6 6.4 0.00 0.00 0.00 62 1015.6
20260503024117 4 183 4.8 6.4 0.00 0.00 0.00 62 1015.6
20260503024011 4 213 0.0 6.4 0.00 0.00 0.00 62 1015.6
20260503023906 4 209 3.2 6.4 0.00 0.00 0.00 62 1015.6
20260503023800 4 164 3.2 4.8 0.00 0.00 0.00 62 1015.6
20260503023656 4 191 1.6 4.8 0.00 0.00 0.00 63 1015.6
20260503023550 4 197 3.2 4.8 0.00 0.00 0.00 62 1015.6
20260503023444 4 198 4.8 4.8 0.00 0.00 0.00 62 1015.6
20260503023339 4 199 1.6 3.2 0.00 0.00 0.00 62 1015.6
20260503023250 4 191 3.2 3.2 0.00 0.00 0.00 62 1015.6
20260503023233 4 194 3.2 3.2 0.00 0.00 0.00 62 1015.6
20260503023128 4 184 0.0 3.2 0.00 0.00 0.00 61 1015.6
20260503023023 4 200 0.0 3.2 0.00 0.00 0.00 61 1015.9
20260503022917 4 187 0.0 3.2 0.00 0.00 0.00 61 1015.6
20260503022812 4 214 0.0 3.2 0.00 0.00 0.00 61 1015.9
20260503022746 4 204 0.0 3.2 0.00 0.00 0.00 61 1015.9
20260503022706 4 205 0.0 3.2 0.00 0.00 0.00 61 1015.6
20260503022601 4 205 0.0 3.2 0.00 0.00 0.00 61 1015.6
20260503022455 4 205 0.0 3.2 0.00 0.00 0.00 61 1015.6
20260503022350 4 200 1.6 3.2 0.00 0.00 0.00 61 1015.6
20260503022244 4 187 0.0 0.0 0.00 0.00 0.00 61 1015.9
20260503022139 4 200 0.0 0.0 0.00 0.00 0.00 61 1015.9
20260503022034 4 199 0.0 0.0 0.00 0.00 0.00 60 1015.6
20260503021928 4 198 0.0 0.0 0.00 0.00 0.00 61 1015.9
20260503021823 4 208 0.0 0.0 0.00 0.00 0.00 61 1015.9
20260503021734 4 204 0.0 0.0 0.00 0.00 0.00 61 1015.9
20260503021717 4 193 0.0 0.0 0.00 0.00 0.00 61 1015.9
20260503021611 4 205 0.0 0.0 0.00 0.00 0.00 61 1015.9
20260503021507 4 198 0.0 0.0 0.00 0.00 0.00 61 1015.6
20260503021401 4 199 0.0 0.0 0.00 0.00 0.00 61 1015.6
20260503021255 4 189 0.0 0.0 0.00 0.00 0.00 61 1015.9
20260503021229 4 201 0.0 0.0 0.00 0.00 0.00 61 1015.9
20260503021150 4 195 0.0 0.0 0.00 0.00 0.00 61 1015.9
20260503021043 4 200 0.0 0.0 0.00 0.00 0.00 61 1015.9
20260503020937 4 188 0.0 0.0 0.00 0.00 0.00 61 1015.6
20260503020832 4 191 0.0 0.0 0.00 0.00 0.00 61 1015.6
20260503020726 4 199 0.0 0.0 0.00 0.00 0.00 60 1015.9
20260503020621 4 196 0.0 0.0 0.00 0.00 0.00 60 1015.9
20260503020516 4 200 0.0 0.0 0.00 0.00 0.00 60 1015.6
20260503020410 4 199 0.0 0.0 0.00 0.00 0.00 60 1015.9
20260503020305 4 190 0.0 0.0 0.00 0.00 0.00 60 1015.6
20260503020216 4 191 0.0 0.0 0.00 0.00 0.00 60 1015.9
20260503020159 4 199 0.0 0.0 0.00 0.00 0.00 60 1015.9
20260503020107 4 206 0.0 0.0 0.00 0.00 0.00 60 1015.6
20260503015949 4 205 0.0 0.0 0.00 0.00 0.00 60 1015.6
20260503015843 4 200 0.0 0.0 0.00 0.00 0.00 61 1015.9
20260503015738 4 195 0.0 0.0 0.00 0.00 0.00 62 1015.9
20260503015712 4 198 0.0 0.0 0.00 0.00 0.00 62 1015.9
20260503015632 4 197 0.0 0.0 0.00 0.00 0.00 62 1015.9
20260503015527 4 200 0.0 0.0 0.00 0.00 0.00 62 1015.6
20260503015422 4 200 0.0 0.0 0.00 0.00 0.00 61 1015.6
20260503015316 4 198 0.0 0.0 0.00 0.00 0.00 61 1015.6
20260503015209 4 193 0.0 0.0 0.00 0.00 0.00 61 1015.6
20260503015105 4 197 0.0 0.0 0.00 0.00 0.00 61 1015.6
20260503014959 4 189 0.0 0.0 0.00 0.00 0.00 61 1015.6
20260503014853 4 187 0.0 0.0 0.00 0.00 0.00 61 1015.6
20260503014749 4 190 0.0 0.0 0.00 0.00 0.00 61 1015.9
20260503014700 4 189 0.0 0.0 0.00 0.00 0.00 60 1015.9
20260503014643 4 188 0.0 0.0 0.00 0.00 0.00 60 1015.9
20260503014538 4 187 0.0 0.0 0.00 0.00 0.00 60 1015.6
20260503014432 5 199 0.0 0.0 0.00 0.00 0.00 59 1015.6
20260503014326 4 199 0.0 0.0 0.00 0.00 0.00 59 1015.9
20260503014221 4 202 0.0 0.0 0.00 0.00 0.00 59 1015.6
20260503014154 4 199 0.0 0.0 0.00 0.00 0.00 59 1015.6
20260503014116 4 199 0.0 0.0 0.00 0.00 0.00 59 1015.9
20260503014011 5 202 0.0 0.0 0.00 0.00 0.00 59 1015.6
20260503013905 5 199 0.0 0.0 0.00 0.00 0.00 59 1015.6
20260503013759 5 198 0.0 0.0 0.00 0.00 0.00 59 1015.9
20260503013654 5 199 0.0 0.0 0.00 0.00 0.00 59 1015.6
20260503013548 4 203 0.0 0.0 0.00 0.00 0.00 59 1015.6
20260503013443 4 205 0.0 0.0 0.00 0.00 0.00 59 1015.6
20260503013338 4 204 0.0 0.0 0.00 0.00 0.00 60 1015.6
20260503013305 4 203 0.0 0.0 0.00 0.00 0.00 60 1015.6
20260503013144 4 203 0.0 0.0 0.00 0.00 0.00 59 1015.6
20260503013127 4 200 0.0 0.0 0.00 0.00 0.00 59 1015.9
20260503013021 4 199 0.0 0.0 0.00 0.00 0.00 59 1015.6
20260503012915 4 203 0.0 1.6 0.00 0.00 0.00 59 1015.6
20260503012809 4 199 0.0 1.6 0.00 0.00 0.00 59 1015.9
20260503012703 4 199 0.0 1.6 0.00 0.00 0.00 59 1015.6
20260503012637 4 200 0.0 1.6 0.00 0.00 0.00 60 1015.6
20260503012558 4 203 0.0 1.6 0.00 0.00 0.00 60 1015.6
20260503012452 4 205 0.0 1.6 0.00 0.00 0.00 60 1015.6
20260503012346 4 203 0.0 1.6 0.00 0.00 0.00 60 1015.6
20260503012241 4 203 0.0 1.6 0.00 0.00 0.00 60 1015.6
20260503012135 4 200 0.0 1.6 0.00 0.00 0.00 60 1015.6
20260503012043 4 195 0.0 1.6 0.00 0.00 0.00 59 1015.6
20260503011924 4 200 1.6 1.6 0.00 0.00 0.00 61 1015.6
20260503011830 4 199 0.0 0.0 0.00 0.00 0.00 61 1015.6
20260503011713 4 199 0.0 0.0 0.00 0.00 0.00 61 1015.6
20260503011606 4 199 0.0 0.0 0.00 0.00 0.00 61 1015.6
20260503011500 4 199 0.0 0.0 0.00 0.00 0.00 62 1015.6
20260503011356 4 199 0.0 0.0 0.00 0.00 0.00 61 1015.6
20260503011250 4 199 0.0 0.0 0.00 0.00 0.00 60 1015.9
20260503011117 4 203 0.0 0.0 0.00 0.00 0.00 58 1015.6
20260503011037 4 203 0.0 0.0 0.00 0.00 0.00 58 1015.6
20260503010933 4 203 0.0 0.0 0.00 0.00 0.00 58 1015.9
20260503010826 4 205 0.0 0.0 0.00 0.00 0.00 58 1015.6
20260503010720 4 197 0.0 0.0 0.00 0.00 0.00 58 1015.9
20260503010615 5 197 0.0 0.0 0.00 0.00 0.00 58 1015.9
20260503010509 5 197 0.0 0.0 0.00 0.00 0.00 59 1015.6
20260503010417 5 197 0.0 0.0 0.00 0.00 0.00 59 1015.9
20260503010258 5 197 0.0 0.0 0.00 0.00 0.00 59 1015.6
20260503010152 5 197 0.0 0.0 0.00 0.00 0.00 57 1015.6
20260503010104 5 197 0.0 0.0 0.00 0.00 0.00 58 1015.6
20260503010059 5 197 0.0 0.0 0.00 0.00 0.00 58 1015.6
20260503005941 5 197 0.0 0.0 0.00 0.00 0.00 59 1015.6
20260503005836 5 193 0.0 0.0 0.00 0.00 0.00 59 1015.6
20260503005730 5 193 0.0 0.0 0.00 0.00 0.00 59 1015.6
20260503005624 5 201 0.0 0.0 0.00 0.00 0.00 60 1015.9
20260503005557 5 201 0.0 0.0 0.00 0.00 0.00 60 1015.9
20260503005519 5 201 0.0 0.0 0.00 0.00 0.00 60 1015.6
20260503005413 5 201 0.0 0.0 0.00 0.00 0.00 59 1015.6
20260503005307 5 195 0.0 0.0 0.00 0.00 0.00 59 1015.6
20260503005202 5 195 0.0 0.0 0.00 0.00 0.00 59 1015.6
20260503005054 5 201 0.0 0.0 0.00 0.00 0.00 59 1015.6
20260503004949 5 193 0.0 0.0 0.00 0.00 0.00 58 1015.6
20260503004843 5 192 0.0 0.0 0.00 0.00 0.00 57 1015.6
20260503004818 5 201 0.0 0.0 0.00 0.00 0.00 55 1015.6
20260503004813 5 193 0.0 0.0 0.00 0.00 0.00 57 1015.6
20260503004804 5 193 0.0 0.0 0.00 0.00 0.00 56 1015.6
20260503004526 5 201 0.0 0.0 0.00 0.00 0.00 56 1015.6
20260503004421 5 195 0.0 0.0 0.00 0.00 0.00 57 1015.3
20260503004320 6 198 0.0 1.6 0.00 0.00 0.00 56 1015.3
20260503004316 5 195 0.0 1.6 0.00 0.00 0.00 56 1015.3
20260503004308 6 201 0.0 1.6 0.00 0.00 0.00 56 1015.3
20260503004259 6 201 0.0 1.6 0.00 0.00 0.00 56 1015.3
20260503003957 6 198 0.0 1.6 0.00 0.00 0.00 56 1015.6
20260503003852 6 200 0.0 1.6 0.00 0.00 0.00 55 1015.3
20260503003747 6 196 0.0 1.6 0.00 0.00 0.00 55 1015.6
20260503003641 6 198 0.0 1.6 0.00 0.00 0.00 54 1015.6
20260503003535 6 198 0.0 1.6 0.00 0.00 0.00 54 1015.6
20260503003430 6 198 0.0 1.6 0.00 0.00 0.00 53 1015.3
20260503003324 6 203 0.0 1.6 0.00 0.00 0.00 52 1015.6
20260503003219 6 207 0.0 1.6 0.00 0.00 0.00 52 1015.3
20260503003112 6 207 0.0 1.6 0.00 0.00 0.00 52 1015.3
20260503003024 6 207 0.0 1.6 0.00 0.00 0.00 52 1015.3
20260503003007 6 207 0.0 1.6 0.00 0.00 0.00 52 1015.3
20260503002901 6 208 0.0 4.8 0.00 0.00 0.00 52 1015.6
20260503002755 6 208 1.6 4.8 0.00 0.00 0.00 52 1015.3
20260503002652 6 207 0.0 4.8 0.00 0.00 0.00 52 1015.6
20260503002545 6 207 1.6 4.8 0.00 0.00 0.00 52 1015.3
20260503002517 6 195 0.0 4.8 0.00 0.00 0.00 52 1015.3
20260503002438 6 206 1.6 4.8 0.00 0.00 0.00 52 1015.3
20260503002333 6 217 0.0 4.8 0.00 0.00 0.00 52 1015.3
20260503002226 6 218 0.0 4.8 0.00 0.00 0.00 52 1015.3
20260503002122 6 218 0.0 4.8 0.00 0.00 0.00 51 1015.3
20260503002015 6 236 1.6 4.8 0.00 0.00 0.00 51 1015.6
20260503001910 6 201 0.0 3.2 0.00 0.00 0.00 52 1015.3
20260503001804 6 210 0.0 3.2 0.00 0.00 0.00 52 1015.3
20260503001700 7 209 0.0 3.2 0.00 0.00 0.00 51 1015.6
20260503001554 7 219 0.0 3.2 0.00 0.00 0.00 50 1015.6
20260503001505 7 222 0.0 3.2 0.00 0.00 0.00 50 1015.3
20260503001448 7 220 0.0 3.2 0.00 0.00 0.00 50 1015.3
20260503001342 7 210 0.0 3.2 0.00 0.00 0.00 49 1015.3
20260503001236 7 222 0.0 3.2 0.00 0.00 0.00 51 1015.6
20260503001130 7 175 0.0 3.2 0.00 0.00 0.00 50 1015.6
20260503001026 7 218 3.2 3.2 0.00 0.00 0.00 50 1015.6
20260503000959 7 224 3.2 3.2 0.00 0.00 0.00 49 1015.6
20260503000919 7 244 1.6 3.2 0.00 0.00 0.00 50 1015.6
20260503000814 7 208 0.0 3.2 0.00 0.00 0.00 51 1015.6
20260503000708 7 237 1.6 4.8 0.00 0.00 0.00 50 1015.6
20260503000604 7 243 0.0 6.4 0.00 0.00 0.00 50 1015.6
20260503000456 7 223 0.0 6.4 0.00 0.00 0.00 51 1015.6
20260503000350 7 199 0.0 6.4 0.00 0.00 0.00 50 1015.6
20260503000244 7 202 0.0 6.4 0.00 0.00 0.00 49 1015.6
20260503000152 7 219 1.6 6.4 0.00 0.00 0.00 49 1015.6
20260503000033 7 170 0.0 6.4 0.00 0.00 0.00 49 1015.3
20260502235946 7 247 3.2 6.4 0.00 0.00 0.00 48 1015.3
20260502235928 7 280 0.0 6.4 0.00 0.00 0.00 48 1015.3
20260502235822 7 222 3.2 6.4 0.00 0.00 0.00 48 1015.3
20260502235717 7 244 3.2 6.4 0.00 0.00 0.00 48 1015.6
20260502235611 7 228 4.8 6.4 0.00 0.00 0.00 47 1015.6
20260502235504 7 221 3.2 6.4 0.00 0.00 0.00 49 1015.6
20260502235437 7 201 4.8 6.4 0.00 0.00 0.00 49 1015.6
20260502235359 7 193 3.2 6.4 0.00 0.00 0.00 48 1015.6
20260502235253 7 229 6.4 6.4 0.00 0.00 0.00 50 1015.6
20260502235147 7 189 1.6 6.4 0.00 0.00 0.00 49 1015.6
20260502235041 7 235 6.4 6.4 0.00 0.00 0.00 48 1015.3
20260502234934 7 221 0.0 4.8 0.00 0.00 0.00 49 1015.3
20260502234829 7 298 0.0 4.8 0.00 0.00 0.00 50 1015.6
20260502234723 7 203 0.0 4.8 0.00 0.00 0.00 49 1015.6
20260502234619 7 194 1.6 3.2 0.00 0.00 0.00 48 1015.6
20260502234512 7 268 0.0 3.2 0.00 0.00 0.00 49 1015.6
20260502234425 7 342 0.0 3.2 0.00 0.00 0.00 48 1015.6
20260502234407 7 326 0.0 3.2 0.00 0.00 0.00 48 1015.6
20260502234301 7 336 0.0 3.2 0.00 0.00 0.00 47 1015.6
20260502234156 7 314 0.0 3.2 0.00 0.00 0.00 51 1015.6
20260502234050 7 310 0.0 3.2 0.00 0.00 0.00 53 1015.6
20260502233945 7 311 0.0 3.2 0.00 0.00 0.00 50 1015.6
20260502233918 7 311 0.0 3.2 0.00 0.00 0.00 50 1015.6
20260502233839 7 315 0.0 3.2 0.00 0.00 0.00 50 1015.6
20260502233733 7 324 0.0 3.2 0.00 0.00 0.00 49 1015.6
20260502233627 7 323 0.0 3.2 0.00 0.00 0.00 48 1015.6
20260502233521 7 292 0.0 3.2 0.00 0.00 0.00 48 1015.6
20260502233416 7 285 0.0 3.2 0.00 0.00 0.00 48 1015.6
20260502233310 7 293 0.0 3.2 0.00 0.00 0.00 47 1015.3
20260502233205 7 13 1.6 3.2 0.00 0.00 0.00 48 1015.6
20260502233059 7 295 1.6 3.2 0.00 0.00 0.00 48 1015.6
20260502232953 7 309 3.2 3.2 0.00 0.00 0.00 49 1015.6
20260502232905 7 278 0.0 3.2 0.00 0.00 0.00 50 1015.6
20260502232848 7 277 1.6 3.2 0.00 0.00 0.00 50 1015.6
20260502232742 7 294 0.0 3.2 0.00 0.00 0.00 49 1015.6
20260502232637 7 357 1.6 3.2 0.00 0.00 0.00 49 1015.9
20260502232531 7 291 1.6 3.2 0.00 0.00 0.00 49 1015.9
20260502232425 7 286 0.0 4.8 0.00 0.00 0.00 48 1015.6
20260502232359 7 298 0.0 4.8 0.00 0.00 0.00 50 1015.6
20260502232319 7 298 0.0 4.8 0.00 0.00 0.00 49 1015.6
20260502232214 7 336 1.6 4.8 0.00 0.00 0.00 48 1015.6
20260502232109 7 282 0.0 4.8 0.00 0.00 0.00 48 1015.9
20260502232003 7 270 0.0 6.4 0.00 0.00 0.00 49 1015.6
20260502231856 7 260 0.0 6.4 0.00 0.00 0.00 49 1015.6
20260502231751 7 261 0.0 6.4 0.00 0.00 0.00 47 1015.6
20260502231646 7 256 0.0 6.4 0.00 0.00 0.00 47 1015.6
20260502231539 7 261 0.0 6.4 0.00 0.00 0.00 47 1015.6
20260502231434 7 345 0.0 9.7 0.00 0.00 0.00 48 1015.6
20260502231346 7 311 0.0 9.7 0.00 0.00 0.00 48 1015.6
20260502231329 7 334 3.2 9.7 0.00 0.00 0.00 47 1015.6
20260502231223 7 330 1.6 9.7 0.00 0.00 0.00 48 1015.6
20260502231117 7 317 3.2 9.7 0.00 0.00 0.00 47 1015.9
20260502231011 7 327 1.6 9.7 0.00 0.00 0.00 47 1015.6
20260502230906 7 270 0.0 9.7 0.00 0.00 0.00 48 1015.6
20260502230839 7 270 0.0 9.7 0.00 0.00 0.00 47 1015.6
20260502230800 7 315 1.6 9.7 0.00 0.00 0.00 48 1015.6
20260502230654 7 275 1.6 9.7 0.00 0.00 0.00 47 1015.6
20260502230549 7 349 3.2 9.7 0.00 0.00 0.00 46 1015.6
20260502230455 7 88 4.8 6.4 0.00 0.00 0.00 48 1015.6
20260502230337 7 5 0.0 4.8 0.00 0.00 0.00 49 1015.6
20260502230232 7 345 0.0 4.8 0.00 0.00 0.00 50 1015.6
20260502230126 7 226 1.6 4.8 0.00 0.00 0.00 50 1015.6
20260502230021 7 315 1.6 4.8 0.00 0.00 0.00 48 1015.6
20260502225915 7 321 0.0 6.4 0.00 0.00 0.00 48 1015.6
20260502225827 7 292 1.6 9.7 0.00 0.00 0.00 47 1015.6
20260502225810 7 275 1.6 9.7 0.00 0.00 0.00 47 1015.6
20260502225704 7 274 0.0 9.7 0.00 0.00 0.00 47 1015.6
20260502225600 7 257 0.0 9.7 0.00 0.00 0.00 48 1015.6
20260502225551 7 328 1.6 9.7 0.00 0.00 0.00 48 1015.6
20260502225545 7 287 1.6 9.7 0.00 0.00 0.00 49 1015.6
20260502225536 7 345 3.2 9.7 0.00 0.00 0.00 47 1015.6
20260502225240 7 253 1.6 9.7 0.00 0.00 0.00 48 1015.6
20260502225134 7 197 0.0 14.5 0.00 0.00 0.00 48 1015.6
20260502225029 8 323 4.8 14.5 0.00 0.00 0.00 47 1015.6
20260502224922 8 334 4.8 14.5 0.00 0.00 0.00 46 1015.9
20260502224817 8 286 1.6 14.5 0.00 0.00 0.00 49 1015.6
20260502224712 8 139 0.0 14.5 0.00 0.00 0.00 49 1015.6
20260502224606 8 346 3.2 14.5 0.00 0.00 0.00 47 1015.6
20260502224539 8 326 1.6 14.5 0.00 0.00 0.00 47 1015.9
20260502224535 8 263 6.4 14.5 0.00 0.00 0.00 47 1015.6
20260502224527 8 246 3.2 14.5 0.00 0.00 0.00 48 1015.9
20260502224248 8 257 9.7 14.5 0.00 0.00 0.00 47 1015.9
20260502224142 8 267 3.2 11.3 0.00 0.00 0.00 47 1015.6
20260502224038 8 334 4.8 11.3 0.00 0.00 0.00 48 1015.6
20260502223931 7 346 0.0 11.3 0.00 0.00 0.00 48 1015.6
20260502223825 7 291 0.0 11.3 0.00 0.00 0.00 47 1015.9
20260502223759 7 293 1.6 11.3 0.00 0.00 0.00 47 1015.9
20260502223720 7 329 3.2 11.3 0.00 0.00 0.00 47 1015.6
20260502223613 8 1 1.6 11.3 0.00 0.00 0.00 47 1015.6
20260502223507 8 327 3.2 11.3 0.00 0.00 0.00 46 1015.6
20260502223402 8 338 3.2 11.3 0.00 0.00 0.00 48 1015.6
20260502223256 8 296 3.2 11.3 0.00 0.00 0.00 47 1015.6
20260502223151 8 329 3.2 11.3 0.00 0.00 0.00 48 1015.6
20260502223045 8 91 3.2 11.3 0.00 0.00 0.00 47 1015.6
20260502222939 8 358 0.0 11.3 0.00 0.00 0.00 49 1015.6
20260502222833 7 223 1.6 11.3 0.00 0.00 0.00 49 1015.9
20260502222746 7 295 0.0 11.3 0.00 0.00 0.00 48 1015.9
20260502222728 7 276 0.0 11.3 0.00 0.00 0.00 49 1015.6
20260502222623 7 262 4.8 11.3 0.00 0.00 0.00 48 1015.6
20260502222516 7 332 0.0 6.4 0.00 0.00 0.00 49 1015.6
20260502222410 7 314 0.0 9.7 0.00 0.00 0.00 48 1015.6
20260502222305 7 210 0.0 9.7 0.00 0.00 0.00 49 1015.6
20260502222238 7 234 1.6 9.7 0.00 0.00 0.00 48 1015.6
20260502222159 7 345 3.2 9.7 0.00 0.00 0.00 49 1015.6
20260502222053 7 252 1.6 9.7 0.00 0.00 0.00 48 1015.9
20260502221958 7 301 4.8 9.7 0.00 0.00 0.00 49 1015.9
20260502221840 7 273 3.2 9.7 0.00 0.00 0.00 48 1015.6
20260502221735 7 5 0.0 9.7 0.00 0.00 0.00 48 1015.9
20260502221629 7 330 3.2 9.7 0.00 0.00 0.00 47 1015.9
20260502221524 7 331 3.2 9.7 0.00 0.00 0.00 47 1015.9
20260502221418 7 330 3.2 4.8 0.00 0.00 0.00 47 1015.9
20260502221325 8 334 3.2 4.8 0.00 0.00 0.00 47 1015.9
20260502221225 8 323 3.2 4.8 0.00 0.00 0.00 47 1015.6
20260502221206 8 98 0.0 6.4 0.00 0.00 0.00 48 1015.6
20260502221101 7 85 1.6 6.4 0.00 0.00 0.00 47 1015.6
20260502220956 7 241 1.6 14.5 0.00 0.00 0.00 48 1015.9
20260502220850 7 296 1.6 14.5 0.00 0.00 0.00 48 1015.9
20260502220743 7 326 1.6 14.5 0.00 0.00 0.00 48 1015.6
20260502220717 7 231 1.6 14.5 0.00 0.00 0.00 48 1015.6
20260502220638 7 244 1.6 14.5 0.00 0.00 0.00 47 1015.6
20260502220532 7 281 3.2 14.5 0.00 0.00 0.00 48 1015.9
20260502220428 7 158 0.0 14.5 0.00 0.00 0.00 48 1015.9
20260502220322 7 303 3.2 14.5 0.00 0.00 0.00 47 1015.9
20260502220216 7 352 3.2 14.5 0.00 0.00 0.00 47 1015.9
20260502220112 7 213 9.7 14.5 0.00 0.00 0.00 47 1015.9
20260502220006 7 329 3.2 9.7 0.00 0.00 0.00 49 1015.9
20260502215859 7 308 1.6 9.7 0.00 0.00 0.00 48 1015.9
20260502215754 7 330 6.4 12.9 0.00 0.00 0.00 47 1015.9
20260502215705 7 336 6.4 12.9 0.00 0.00 0.00 47 1015.6
20260502215648 7 20 6.4 12.9 0.00 0.00 0.00 47 1015.6
20260502215542 7 286 1.6 12.9 0.00 0.00 0.00 49 1015.6
20260502215436 7 260 3.2 12.9 0.00 0.00 0.00 49 1015.9
20260502215332 7 329 8.0 12.9 0.00 0.00 0.00 47 1015.6
20260502215226 7 318 6.4 12.9 0.00 0.00 0.00 47 1015.6
20260502215159 7 335 0.0 12.9 0.00 0.00 0.00 49 1015.6
20260502215120 7 318 3.2 12.9 0.00 0.00 0.00 48 1015.9
20260502215015 7 319 6.4 12.9 0.00 0.00 0.00 48 1015.6
20260502214931 7 314 3.2 12.9 0.00 0.00 0.00 48 1015.9
20260502214922 7 323 9.7 12.9 0.00 0.00 0.00 48 1015.9
20260502214912 7 320 4.8 11.3 0.00 0.00 0.00 48 1015.9
20260502214554 7 253 1.6 11.3 0.00 0.00 0.00 48 1015.6
20260502214448 7 327 3.2 11.3 0.00 0.00 0.00 47 1016.3
20260502214342 7 290 3.2 16.1 0.00 0.00 0.00 47 1015.9
20260502214237 7 337 8.0 16.1 0.00 0.00 0.00 47 1015.9
20260502214148 7 287 1.6 16.1 0.00 0.00 0.00 50 1015.9
20260502214131 7 308 3.2 16.1 0.00 0.00 0.00 49 1015.9
20260502214025 7 239 0.0 16.1 0.00 0.00 0.00 48 1015.6
20260502213920 7 37 3.2 16.1 0.00 0.00 0.00 47 1015.6
20260502213814 7 333 0.0 16.1 0.00 0.00 0.00 47 1015.9
20260502213708 7 269 3.2 16.1 0.00 0.00 0.00 48 1015.9
20260502213641 7 269 3.2 16.1 0.00 0.00 0.00 48 1015.9
20260502213603 8 327 1.6 16.1 0.00 0.00 0.00 49 1015.6
20260502213457 8 198 9.7 16.1 0.00 0.00 0.00 47 1015.6
20260502213351 8 296 3.2 12.9 0.00 0.00 0.00 49 1015.6
20260502213245 8 320 1.6 12.9 0.00 0.00 0.00 50 1015.6
20260502213140 8 314 3.2 12.9 0.00 0.00 0.00 48 1015.6
20260502213035 8 226 6.4 11.3 0.00 0.00 0.00 47 1015.6
20260502212928 8 249 0.0 11.3 0.00 0.00 0.00 48 1015.6
20260502212823 8 191 3.2 11.3 0.00 0.00 0.00 47 1015.6
20260502212718 8 249 1.6 11.3 0.00 0.00 0.00 49 1015.6
20260502212630 8 172 0.0 11.3 0.00 0.00 0.00 47 1015.6
20260502212613 8 304 1.6 11.3 0.00 0.00 0.00 48 1015.6
20260502212506 7 248 1.6 11.3 0.00 0.00 0.00 48 1015.6
20260502212400 7 274 1.6 11.3 0.00 0.00 0.00 49 1015.6
20260502212255 7 239 3.2 11.3 0.00 0.00 0.00 47 1015.9
20260502212150 8 320 3.2 9.7 0.00 0.00 0.00 48 1015.6
20260502212123 8 298 1.6 9.7 0.00 0.00 0.00 47 1015.6
20260502212044 8 276 6.4 9.7 0.00 0.00 0.00 47 1015.6
20260502211939 8 257 4.8 9.7 0.00 0.00 0.00 47 1015.9
20260502211833 8 304 3.2 9.7 0.00 0.00 0.00 48 1015.6
20260502211726 8 346 4.8 11.3 0.00 0.00 0.00 47 1015.6
20260502211620 8 8 3.2 11.3 0.00 0.00 0.00 50 1015.9
20260502211515 8 250 0.0 11.3 0.00 0.00 0.00 48 1015.6
20260502211410 8 330 3.2 11.3 0.00 0.00 0.00 49 1015.6
20260502211305 7 296 4.8 11.3 0.00 0.00 0.00 48 1015.9
20260502211159 7 76 1.6 11.3 0.00 0.00 0.00 49 1015.9
20260502211111 7 325 1.6 11.3 0.00 0.00 0.00 50 1015.9
20260502211053 7 315 4.8 11.3 0.00 0.00 0.00 49 1015.9
20260502210947 7 214 4.8 11.3 0.00 0.00 0.00 48 1015.6
20260502210841 7 265 3.2 11.3 0.00 0.00 0.00 48 1015.6
20260502210736 7 272 6.4 9.7 0.00 0.00 0.00 48 1015.9
20260502210630 7 272 3.2 9.7 0.00 0.00 0.00 49 1015.9
20260502210603 7 325 3.2 9.7 0.00 0.00 0.00 49 1015.9
20260502210524 7 329 3.2 9.7 0.00 0.00 0.00 49 1015.6
20260502210418 7 45 6.4 9.7 0.00 0.00 0.00 49 1015.6
20260502210314 7 330 4.8 6.4 0.00 0.00 0.00 49 1015.9
20260502210207 7 323 0.0 6.4 0.00 0.00 0.00 49 1015.9
20260502210110 7 319 1.6 11.3 0.00 0.00 0.00 48 1015.9
20260502205956 7 244 1.6 11.3 0.00 0.00 0.00 49 1015.9
20260502205850 7 302 1.6 11.3 0.00 0.00 0.00 49 1015.9
20260502205745 7 222 3.2 11.3 0.00 0.00 0.00 50 1015.9
20260502205639 7 249 1.6 11.3 0.00 0.00 0.00 51 1016.3
20260502205551 7 27 3.2 11.3 0.00 0.00 0.00 50 1015.9
20260502205534 7 282 0.0 11.3 0.00 0.00 0.00 49 1015.9
20260502205428 7 296 1.6 11.3 0.00 0.00 0.00 50 1015.9
20260502205322 7 252 1.6 11.3 0.00 0.00 0.00 49 1015.9
20260502205218 7 261 3.2 11.3 0.00 0.00 0.00 48 1015.9
20260502205111 7 180 1.6 9.7 0.00 0.00 0.00 50 1015.9
20260502205045 7 287 3.2 9.7 0.00 0.00 0.00 49 1015.9
20260502205005 7 246 3.2 9.7 0.00 0.00 0.00 49 1015.9
20260502204900 7 240 3.2 9.7 0.00 0.00 0.00 52 1015.9
20260502204754 7 227 1.6 9.7 0.00 0.00 0.00 51 1015.9
20260502204648 7 313 3.2 14.5 0.00 0.00 0.00 49 1015.9
20260502204543 7 340 4.8 14.5 0.00 0.00 0.00 50 1015.6
20260502204437 7 317 3.2 14.5 0.00 0.00 0.00 49 1015.9
20260502204332 7 345 6.4 14.5 0.00 0.00 0.00 49 1016.3
20260502204226 7 333 4.8 14.5 0.00 0.00 0.00 49 1015.9
20260502204120 7 256 0.0 14.5 0.00 0.00 0.00 50 1016.3
20260502204031 7 229 1.6 14.5 0.00 0.00 0.00 50 1016.3
20260502204015 7 229 1.6 14.5 0.00 0.00 0.00 50 1015.9
20260502203908 7 273 6.4 14.5 0.00 0.00 0.00 50 1015.9
20260502203801 7 226 6.4 14.5 0.00 0.00 0.00 50 1015.9
20260502203656 7 299 4.8 12.9 0.00 0.00 0.00 49 1016.3
20260502203550 7 307 3.2 12.9 0.00 0.00 0.00 48 1015.9
20260502203524 7 327 6.4 12.9 0.00 0.00 0.00 48 1016.3
20260502203445 7 357 3.2 12.9 0.00 0.00 0.00 49 1016.3
20260502203346 7 276 4.8 12.9 0.00 0.00 0.00 49 1016.3
20260502203240 7 201 1.6 12.9 0.00 0.00 0.00 50 1016.3
20260502203133 7 332 1.6 12.9 0.00 0.00 0.00 48 1016.3
20260502203026 7 328 3.2 12.9 0.00 0.00 0.00 48 1015.9
20260502202922 7 335 8.0 12.9 0.00 0.00 0.00 48 1015.9
20260502202815 7 321 4.8 11.3 0.00 0.00 0.00 51 1016.3
20260502202711 7 8 1.6 11.3 0.00 0.00 0.00 50 1015.9
20260502202605 7 340 3.2 16.1 0.00 0.00 0.00 50 1016.3
20260502202516 7 330 6.4 16.1 0.00 0.00 0.00 50 1016.3
20260502202459 7 340 1.6 16.1 0.00 0.00 0.00 49 1016.3
20260502202353 7 66 0.0 16.1 0.00 0.00 0.00 50 1015.9
20260502202247 7 257 0.0 16.1 0.00 0.00 0.00 50 1016.3
20260502202141 7 229 6.4 16.1 0.00 0.00 0.00 50 1015.9
20260502202035 7 230 1.6 16.1 0.00 0.00 0.00 49 1016.3
20260502202009 7 202 3.2 16.1 0.00 0.00 0.00 49 1015.9
20260502201929 7 239 8.0 16.1 0.00 0.00 0.00 49 1016.3
20260502201824 7 83 0.0 16.1 0.00 0.00 0.00 49 1016.3
20260502201718 7 121 4.8 16.1 0.00 0.00 0.00 49 1015.9
20260502201612 7 269 9.7 16.1 0.00 0.00 0.00 48 1015.9
20260502201506 7 204 1.6 12.9 0.00 0.00 0.00 49 1016.3
20260502201401 7 221 1.6 12.9 0.00 0.00 0.00 49 1016.3
20260502201255 7 171 1.6 12.9 0.00 0.00 0.00 48 1015.9
20260502201149 7 249 1.6 12.9 0.00 0.00 0.00 47 1016.3
20260502201043 7 230 1.6 11.3 0.00 0.00 0.00 48 1016.3
20260502200956 7 156 3.2 11.3 0.00 0.00 0.00 49 1015.9
20260502200938 7 244 3.2 11.3 0.00 0.00 0.00 49 1015.9
20260502200833 8 257 3.2 11.3 0.00 0.00 0.00 49 1016.3
20260502200727 8 226 1.6 14.5 0.00 0.00 0.00 48 1016.3
20260502200622 8 278 9.7 14.5 0.00 0.00 0.00 48 1016.3
20260502200515 8 216 0.0 14.5 0.00 0.00 0.00 48 1016.3
20260502200448 8 93 3.2 14.5 0.00 0.00 0.00 49 1016.3
20260502200409 8 255 8.0 14.5 0.00 0.00 0.00 48 1016.3
20260502200303 7 303 1.6 14.5 0.00 0.00 0.00 49 1016.3
20260502200158 7 215 6.4 14.5 0.00 0.00 0.00 50 1016.3
20260502195946 7 218 4.8 14.5 0.00 0.00 0.00 50 1016.3
20260502195841 7 251 4.8 14.5 0.00 0.00 0.00 49 1016.3
20260502195736 7 253 6.4 11.3 0.00 0.00 0.00 48 1016.3
20260502195632 7 285 0.0 11.3 0.00 0.00 0.00 50 1016.3
20260502195528 7 307 0.0 11.3 0.00 0.00 0.00 50 1016.6
20260502195439 7 247 3.2 11.3 0.00 0.00 0.00 48 1016.6
20260502195422 7 319 6.4 11.3 0.00 0.00 0.00 48 1016.3
20260502195316 7 208 3.2 11.3 0.00 0.00 0.00 48 1016.6
20260502195210 7 278 4.8 11.3 0.00 0.00 0.00 50 1016.6
20260502195106 7 280 3.2 11.3 0.00 0.00 0.00 49 1016.6
20260502195000 7 258 3.2 11.3 0.00 0.00 0.00 50 1016.3
20260502194934 7 351 4.8 11.3 0.00 0.00 0.00 49 1016.3
20260502194855 7 130 1.6 11.3 0.00 0.00 0.00 48 1016.3
20260502194749 7 221 4.8 11.3 0.00 0.00 0.00 48 1016.3
20260502194644 7 232 4.8 11.3 0.00 0.00 0.00 48 1016.6
20260502194538 7 344 8.0 11.3 0.00 0.00 0.00 49 1016.6
20260502194432 7 303 3.2 11.3 0.00 0.00 0.00 50 1016.3
20260502194326 7 41 3.2 11.3 0.00 0.00 0.00 48 1016.3
20260502194221 7 338 0.0 14.5 0.00 0.00 0.00 48 1016.6
20260502194129 7 252 0.0 14.5 0.00 0.00 0.00 49 1016.6
20260502194010 7 349 0.0 14.5 0.00 0.00 0.00 48 1016.6
20260502193922 7 351 0.0 14.5 0.00 0.00 0.00 48 1016.6
20260502193905 7 349 0.0 14.5 0.00 0.00 0.00 48 1016.6
20260502193759 7 344 0.0 14.5 0.00 0.00 0.00 48 1016.6
20260502193654 7 337 6.4 14.5 0.00 0.00 0.00 48 1016.3
20260502193549 7 330 4.8 14.5 0.00 0.00 0.00 48 1016.3
20260502193443 7 325 8.0 14.5 0.00 0.00 0.00 48 1016.6
20260502193417 7 1 8.0 14.5 0.00 0.00 0.00 47 1016.6
20260502193337 7 329 8.0 14.5 0.00 0.00 0.00 47 1016.6
20260502193232 7 334 6.4 12.9 0.00 0.00 0.00 47 1016.6
20260502193126 7 319 3.2 12.9 0.00 0.00 0.00 46 1016.6
20260502193022 7 322 0.0 12.9 0.00 0.00 0.00 49 1016.6
20260502192915 7 337 4.8 12.9 0.00 0.00 0.00 48 1016.3
20260502192810 7 322 8.0 12.9 0.00 0.00 0.00 47 1016.6
20260502192706 7 349 4.8 11.3 0.00 0.00 0.00 47 1016.6
20260502192600 7 343 3.2 11.3 0.00 0.00 0.00 48 1016.6
20260502192454 7 304 6.4 11.3 0.00 0.00 0.00 48 1016.6
20260502192406 7 326 6.4 11.3 0.00 0.00 0.00 49 1016.6
20260502192349 7 320 0.0 11.3 0.00 0.00 0.00 50 1016.6
20260502192243 7 15 4.8 11.3 0.00 0.00 0.00 48 1016.3
20260502192137 7 240 8.0 11.3 0.00 0.00 0.00 48 1016.6
20260502192033 8 297 4.8 9.7 0.00 0.00 0.00 48 1016.6
20260502191927 8 91 4.8 16.1 0.00 0.00 0.00 49 1016.6
20260502191902 8 294 1.6 16.1 0.00 0.00 0.00 48 1016.6
20260502191822 8 232 3.2 16.1 0.00 0.00 0.00 48 1016.6
20260502191716 8 277 1.6 16.1 0.00 0.00 0.00 47 1016.6
20260502191610 8 243 3.2 16.1 0.00 0.00 0.00 48 1016.6
20260502191505 8 259 0.0 16.1 0.00 0.00 0.00 47 1016.9
20260502191359 8 356 3.2 16.1 0.00 0.00 0.00 47 1016.6
20260502191254 8 238 3.2 16.1 0.00 0.00 0.00 46 1016.6
20260502191148 8 345 3.2 16.1 0.00 0.00 0.00 45 1016.6
20260502191043 8 267 3.2 16.1 0.00 0.00 0.00 45 1016.9
20260502190937 8 285 3.2 9.7 0.00 0.00 0.00 45 1016.9
20260502190914 7 331 4.8 11.3 0.00 0.00 0.00 48 1016.9
20260502190908 8 290 3.2 9.7 0.00 0.00 0.00 48 1016.6
20260502190904 8 204 3.2 9.7 0.00 0.00 0.00 47 1016.6
20260502190856 8 277 4.8 9.7 0.00 0.00 0.00 48 1016.6
20260502190633 8 49 1.6 9.7 0.00 0.00 0.00 49 1016.9
20260502190625 7 276 4.8 9.7 0.00 0.00 0.00 49 1016.9
20260502190603 7 246 3.2 11.3 0.00 0.00 0.00 47 1016.9
20260502190318 7 335 6.4 11.3 0.00 0.00 0.00 48 1016.6
20260502190159 7 41 6.4 11.3 0.00 0.00 0.00 49 1016.9
20260502190131 7 201 0.0 11.3 0.00 0.00 0.00 49 1016.9
20260502190127 7 274 4.8 11.3 0.00 0.00 0.00 50 1016.9
20260502190118 7 220 4.8 11.3 0.00 0.00 0.00 48 1016.6
20260502190055 7 201 0.0 11.3 0.00 0.00 0.00 49 1016.9
20260502185738 7 263 0.0 11.3 0.00 0.00 0.00 49 1016.9
20260502185632 7 292 0.0 11.3 0.00 0.00 0.00 48 1016.6
20260502185527 7 345 8.0 11.3 0.00 0.00 0.00 47 1016.9
20260502185421 8 302 3.2 11.3 0.00 0.00 0.00 45 1016.9
20260502185408 7 215 6.4 20.9 0.00 0.00 0.00 50 1016.9
20260502185402 8 301 1.6 11.3 0.00 0.00 0.00 46 1016.9
20260502185358 8 89 1.6 11.3 0.00 0.00 0.00 46 1016.6
20260502185349 8 286 8.0 11.3 0.00 0.00 0.00 46 1016.9
20260502185127 7 329 6.4 12.9 0.00 0.00 0.00 46 1016.9
20260502185123 7 302 6.4 12.9 0.00 0.00 0.00 47 1016.9
20260502185119 8 195 1.6 11.3 0.00 0.00 0.00 45 1016.9
20260502185111 7 207 1.6 12.9 0.00 0.00 0.00 45 1016.9
20260502185102 7 333 6.4 12.9 0.00 0.00 0.00 46 1016.6
20260502184841 7 286 6.4 12.9 0.00 0.00 0.00 46 1016.9
20260502184832 7 265 6.4 12.9 0.00 0.00 0.00 45 1016.9
20260502184607 7 246 4.8 12.9 0.00 0.00 0.00 47 1016.9
20260502184559 7 242 9.7 12.9 0.00 0.00 0.00 46 1016.6
20260502184549 7 302 6.4 12.9 0.00 0.00 0.00 47 1016.9
20260502184328 7 306 6.4 20.9 0.00 0.00 0.00 49 1016.9
20260502184320 7 149 3.2 20.9 0.00 0.00 0.00 51 1016.9
20260502184100 8 269 4.8 17.7 0.00 0.00 0.00 45 1016.6
20260502184056 7 291 4.8 20.9 0.00 0.00 0.00 49 1016.9
20260502184048 7 325 6.4 20.9 0.00 0.00 0.00 51 1016.9
20260502183826 7 256 4.8 20.9 0.00 0.00 0.00 50 1016.9
20260502183818 7 241 6.4 20.9 0.00 0.00 0.00 49 1016.9
20260502183551 7 302 4.8 20.9 0.00 0.00 0.00 49 1016.6
20260502183542 7 341 0.0 20.9 0.00 0.00 0.00 50 1016.9
20260502183534 7 306 6.4 20.9 0.00 0.00 0.00 48 1016.9
20260502183313 7 287 16.1 20.9 0.00 0.00 0.00 48 1016.9
20260502183309 7 326 4.8 16.1 0.00 0.00 0.00 50 1016.9
20260502183300 7 354 1.6 16.1 0.00 0.00 0.00 49 1016.6
20260502183041 7 327 6.4 17.7 0.00 0.00 0.00 48 1016.9
20260502183033 8 0 6.4 17.7 0.00 0.00 0.00 48 1016.6
20260502183022 8 269 4.8 17.7 0.00 0.00 0.00 45 1016.6
20260502182705 8 8 0.0 17.7 0.00 0.00 0.00 45 1016.6
20260502182559 7 315 3.2 17.7 0.00 0.00 0.00 44 1016.9
20260502182452 7 245 1.6 17.7 0.00 0.00 0.00 46 1016.9
20260502182347 7 252 0.0 17.7 0.00 0.00 0.00 46 1016.9
20260502182259 7 321 3.2 17.7 0.00 0.00 0.00 47 1016.9
20260502182242 7 288 3.2 17.7 0.00 0.00 0.00 46 1016.9
20260502182136 7 255 3.2 17.7 0.00 0.00 0.00 46 1016.9
20260502182030 7 221 4.8 17.7 0.00 0.00 0.00 47 1016.9
20260502181924 7 234 3.2 17.7 0.00 0.00 0.00 48 1016.9
20260502181818 7 242 4.8 17.7 0.00 0.00 0.00 48 1016.9
20260502181752 7 261 3.2 17.7 0.00 0.00 0.00 47 1016.9
20260502181713 7 323 11.3 17.7 0.00 0.00 0.00 46 1016.9
20260502181606 7 325 3.2 12.9 0.00 0.00 0.00 47 1016.9
20260502181502 7 22 9.7 12.9 0.00 0.00 0.00 47 1016.9
20260502181356 7 26 3.2 11.3 0.00 0.00 0.00 48 1016.9
20260502181249 7 331 3.2 11.3 0.00 0.00 0.00 47 1016.9
20260502181145 7 292 6.4 11.3 0.00 0.00 0.00 47 1016.9
20260502181039 7 299 6.4 11.3 0.00 0.00 0.00 47 1016.9
20260502180933 7 240 0.0 9.7 0.00 0.00 0.00 47 1016.9
20260502180828 7 266 4.8 9.7 0.00 0.00 0.00 48 1016.9
20260502180739 7 266 3.2 9.7 0.00 0.00 0.00 46 1016.9
20260502180722 7 6 3.2 9.7 0.00 0.00 0.00 46 1016.9
20260502180617 7 312 3.2 11.3 0.00 0.00 0.00 49 1016.9
20260502180511 7 237 6.4 11.3 0.00 0.00 0.00 46 1016.9
20260502180405 7 311 3.2 11.3 0.00 0.00 0.00 46 1016.9
20260502180300 7 235 0.0 11.3 0.00 0.00 0.00 47 1016.9
20260502180234 7 286 3.2 11.3 0.00 0.00 0.00 47 1016.9
20260502180155 7 290 1.6 11.3 0.00 0.00 0.00 45 1016.9
20260502180103 7 305 1.6 11.3 0.00 0.00 0.00 46 1016.9